Flag for Norway Weather past 2 weeks in Fetsund, Norway

Now
56 °F

Cool.


Feels Like: 56 °F
Forecast: 39 / 54 °F
Wind: 2 mph from Northeast

Location: Oslo-Blindern

Current Time: Sep 21, 2014 at 4:14:50 PM

Latest Report: Sep 21, 2014 at 3:00 PM


Visibility: N/A

Pressure: 29.79 "Hg

Humidity: 79%

Dew point: 49 °F

Location of FetsundLocation

Historic Weather in Fetsund — Graph

°F

Fetsund temperature yesterday

Maximum temperature yesterday: 61 °F (at 3:00 PM)
Minimum temperature yesterday: 45 °F (at 7:00 AM)
Average temperature yesterday: 52 °F

Past Weeks' High & Low Weather Summary

 TemperatureHumidityPressure
High70 °F (Sep 13, 3:00 PM)98% (Sep 9, 6:00 AM)30.48 "Hg (Sep 9, 6:00 AM)
Low44 °F (Sep 18, 6:00 AM)42% (Sep 14, 3:00 PM)29.76 "Hg (Sep 9, 6:00 AM)
Average57 °F79%30.15 "Hg
* Reported Sep 6 3:00 PM — Sep 21 3:00 PM, Fetsund, Weather by CustomWeather, © 2014

Note: Actual official high and low records may vary slightly from our data, if they occured in-between our weather recording intervals... More about our weather records

Advertising

Fetsund weather history for previous 24 hours

 ConditionsComfort  
Time TempWeatherWind HumidityBarometerVisibility
3:00 PM
Sep 21
56 °FCool.2 mph79%29.79 "HgN/A
2:00 PM56 °FOvercast.2 mph74%29.80 "Hg47 mi
1:00 PM57 °FCool.2 mph71%29.81 "HgN/A
12:00 PM57 °FCool.3 mph70%29.80 "HgN/A
11:00 AM54 °FOvercast.3 mph77%29.82 "Hg43 mi
10:00 AM52 °FCool.6 mph83%29.81 "HgN/A
9:00 AM53 °FCool.7 mph82%29.79 "HgN/A
8:00 AM52 °FLight rain. Overcast.3 mph90%29.78 "Hg47 mi
7:00 AM53 °FCool.6 mph93%29.76 "HgN/A
6:00 AM53 °FCool.No wind97%29.77 "HgN/A
5:00 AM53 °FLight rain. Overcast.1 mph97%29.78 "Hg9 mi
4:00 AM54 °FCool.1 mph96%29.79 "HgN/A
3:00 AM54 °FCool.2 mph95%29.80 "HgN/A
2:00 AM54 °FLight rain. Overcast.1 mph94%29.81 "Hg9 mi
1:00 AM54 °FCool.1 mph90%29.82 "HgN/A
12:00 AM54 °FCool.2 mph89%29.82 "HgN/A
11:00 PM
Sep 20
54 °FOvercast.2 mph89%29.83 "Hg16 mi
10:00 PM55 °FCool.1 mph88%29.84 "HgN/A
9:00 PM56 °FCool.1 mph85%29.85 "HgN/A
8:00 PM57 °FOvercast.1 mph84%29.85 "Hg9 mi
7:00 PM58 °FCool.1 mph81%29.86 "HgN/A
Weather by CustomWeather, © 2014

See weather overviewHow to use our weather pages